To NAV CANADA Home Page Login to a new session Search on AWWS site Feedback and Comments Disclaimer Vers la page française équivalente Tips FAQ What's new on the site To the Forecasts and Observations / NOTAM section To "File a Flight Plan" website Publications and other links Update of the User's profile FIC Telephone Numbers My Weather Data Folder Route Weather Data Regional Weather Data Local Weather Data To the Forecasts and Observations / NOTAM section
Request Generated 05/28/2015 at 23:47:58 UTC . Weather information available at that time is displayed.

METAR/TAF

WHALE COVE/NU    

LWIS CYXN 282300Z AUTO 27004KT M03/M09 A3037=
METAR CYXN 282100Z 31011KT 15SM OVC020 M03/M08 A3036 RMK SC8
-2.5/-6.0/0.0MM/7.0CM/SNW CVR HARD PACK/LAST OBS/NEXT 291300Z SLP281=

CYXN - No TAF is issued for this station

Your time UTC time
Weather data provided by Environment Canada and NAV CANADA